KE8HFO Weather Reports


time (UTC)temp
C
wind
direction
speed
KPH
gust
KPH
rain 1hr
cm
rain 24hr
cm
rain mn
cm
humidity
%
barometer
mb
20260903025538 25 0 0.0 0.0 0.00 0.00 0.00 86 1018.1
20260903025037 25 0 0.0 0.0 0.00 0.00 0.00 86 1018.1
20260903024555 25 0 0.0 0.0 0.00 0.00 0.00 86 1018.2
20260903024034 25 0 0.0 0.0 0.00 0.00 0.00 86 1018.3
20260903023533 25 0 0.0 0.0 0.00 0.00 0.00 86 1018.2
20260903023106 25 0 0.0 0.0 0.00 0.00 0.00 86 1018.2
20260903022533 25 0 0.0 0.0 0.00 0.00 0.00 85 1018.2
20260903022034 26 0 0.0 0.0 0.00 0.00 0.00 84 1018.3
20260903021601 26 0 0.0 0.0 0.00 0.00 0.00 84 1018.2
20260903021033 26 0 0.0 0.0 0.00 0.00 0.00 84 1018.2
20260903020533 26 0 0.0 0.0 0.00 0.00 0.00 84 1018.1
20260903020055 26 0 0.0 0.0 0.00 0.00 0.00 84 1018.2
20260903015533 26 0 0.0 0.0 0.00 0.00 0.00 84 1018.1
20260903015040 26 0 0.0 0.0 0.00 0.00 0.00 83 1018.1
20260903014608 26 0 0.0 0.0 0.00 0.00 0.00 83 1018.1
20260903014034 26 0 0.0 0.0 0.00 0.00 0.00 82 1018.1
20260903013538 26 0 0.0 0.0 0.00 0.00 0.00 82 1018.0
20260903013106 26 0 0.0 0.0 0.00 0.00 0.00 81 1018.1
20260903012534 26 0 0.0 0.0 0.00 0.00 0.00 80 1018.0
20260903012037 27 0 0.0 0.0 0.00 0.00 0.00 80 1018.0
20260903011609 27 0 0.0 0.0 0.00 0.00 0.00 79 1017.9
20260903011034 27 0 0.0 0.0 0.00 0.00 0.00 78 1017.8
20260903010535 27 0 0.0 0.0 0.00 0.00 0.00 77 1017.8
20260903010115 27 0 0.0 0.0 0.00 0.00 0.00 77 1017.8
20260903005534 27 0 0.0 0.0 0.00 0.00 0.00 76 1017.8
20260903005034 28 0 0.0 0.0 0.00 0.00 0.00 75 1017.7
20260903004555 28 0 0.0 0.0 0.00 0.00 0.00 75 1017.7
20260903004033 28 0 0.0 0.0 0.00 0.00 0.00 75 1017.7
20260903003536 28 0 0.0 0.0 0.00 0.00 0.00 74 1017.7
20260903003051 28 0 0.0 0.0 0.00 0.00 0.00 74 1017.6
20260903002533 28 0 0.0 0.0 0.00 0.00 0.00 74 1017.6
20260903002034 28 0 0.0 0.0 0.00 0.00 0.00 73 1017.7
20260903001600 28 0 0.0 0.0 0.00 0.00 0.00 72 1017.6
20260903001036 29 0 0.0 0.0 0.00 0.00 0.00 72 1017.6
20260903000534 29 0 0.0 1.6 0.00 0.00 0.00 71 1017.7
20260903000055 29 0 0.0 1.6 0.00 0.00 0.00 71 1017.6
20260902235533 30 40 0.0 3.2 0.00 0.00 0.00 71 1017.6
20260902235033 30 41 0.0 3.2 0.00 0.00 0.00 71 1017.6
20260902234606 30 12 0.0 1.6 0.00 0.00 0.00 70 1017.5
20260902234037 30 10 0.0 3.2 0.00 0.00 0.00 70 1017.5
20260902233535 30 11 1.6 3.2 0.00 0.00 0.00 70 1017.4
20260902233056 30 0 0.0 1.6 0.00 0.00 0.00 69 1017.5
20260902232534 30 23 0.0 3.2 0.00 0.00 0.00 69 1017.6
20260902232036 31 0 0.0 3.2 0.00 0.00 0.00 68 1017.5
20260902231611 31 17 1.6 3.2 0.00 0.00 0.00 67 1017.5
20260902231035 31 0 0.0 3.2 0.00 0.00 0.00 67 1017.5
20260902230535 32 309 0.0 4.8 0.00 0.00 0.00 65 1017.5
20260902230056 32 32 1.6 4.8 0.00 0.00 0.00 65 1017.6
20260902225535 32 44 1.6 4.8 0.00 0.00 0.00 63 1017.6
20260902225038 33 38 0.0 9.7 0.00 0.00 0.00 62 1017.6
20260902224604 33 30 1.6 11.3 0.00 0.00 0.00 61 1017.6
20260902224036 33 113 3.2 11.3 0.00 0.00 0.00 60 1017.6
20260902223535 33 44 0.0 3.2 0.00 0.00 0.00 60 1017.6
20260902223055 33 28 0.0 4.8 0.00 0.00 0.00 61 1017.6
20260902222535 33 19 1.6 8.0 0.00 0.00 0.00 61 1017.6
20260902222034 33 340 1.6 8.0 0.00 0.00 0.00 60 1017.6
20260902221619 33 257 1.6 8.0 0.00 0.00 0.00 59 1017.6
20260902221036 33 347 1.6 8.0 0.00 0.00 0.00 60 1017.5
20260902220536 33 90 1.6 8.0 0.00 0.00 0.00 59 1017.7
20260902220100 33 343 3.2 8.0 0.00 0.00 0.00 60 1017.7
20260902215537 33 348 1.6 11.3 0.00 0.00 0.00 58 1017.7
20260902215037 33 26 1.6 11.3 0.00 0.00 0.00 59 1017.7
20260902214557 33 59 1.6 8.0 0.00 0.00 0.00 59 1017.7
20260902214036 33 244 1.6 11.3 0.00 0.00 0.00 58 1017.9
20260902213539 33 10 3.2 14.5 0.00 0.00 0.00 60 1017.8
20260902213102 33 67 3.2 14.5 0.00 0.00 0.00 59 1017.8
20260902212536 33 336 4.8 14.5 0.00 0.00 0.00 58 1017.7
20260902212036 33 67 3.2 11.3 0.00 0.00 0.00 60 1018.0
20260902211558 33 26 3.2 11.3 0.00 0.00 0.00 59 1017.8
20260902211035 33 57 3.2 8.0 0.00 0.00 0.00 59 1017.9
20260902210539 34 90 1.6 8.0 0.00 0.00 0.00 58 1018.0
20260902210056 34 38 1.6 8.0 0.00 0.00 0.00 60 1018.0
20260902205536 34 62 3.2 9.7 0.00 0.00 0.00 60 1018.0
20260902205036 34 44 3.2 9.7 0.00 0.00 0.00 56 1017.9
20260902204607 34 43 3.2 6.4 0.00 0.00 0.00 56 1018.1
20260902204037 34 341 3.2 9.7 0.00 0.00 0.00 54 1018.0
20260902203536 34 84 1.6 9.7 0.00 0.00 0.00 57 1018.1
20260902203050 34 14 3.2 14.5 0.00 0.00 0.00 55 1018.2
20260902202538 33 334 3.2 14.5 0.00 0.00 0.00 58 1018.2
20260902202037 33 100 4.8 14.5 0.00 0.00 0.00 56 1018.3
20260902201601 34 61 3.2 12.9 0.00 0.00 0.00 56 1018.3
20260902201037 34 80 3.2 12.9 0.00 0.00 0.00 56 1018.4
20260902200537 34 69 3.2 9.7 0.00 0.00 0.00 56 1018.5
20260902200054 34 17 3.2 11.3 0.00 0.00 0.00 57 1018.5
20260902195537 34 52 3.2 11.3 0.00 0.00 0.00 56 1018.6
20260902195036 34 54 1.6 8.0 0.00 0.00 0.00 55 1018.6
20260902194554 34 248 3.2 8.0 0.00 0.00 0.00 55 1018.6
20260902194037 34 21 3.2 17.7 0.00 0.00 0.00 56 1018.7
20260902193540 34 345 1.6 17.7 0.00 0.00 0.00 55 1018.8
20260902193108 33 53 4.8 17.7 0.00 0.00 0.00 55 1018.8
20260902192537 34 259 3.2 14.5 0.00 0.00 0.00 55 1018.8
20260902192037 34 19 4.8 14.5 0.00 0.00 0.00 58 1018.9
20260902191629 34 47 4.8 14.5 0.00 0.00 0.00 57 1018.8
20260902191037 34 26 3.2 14.5 0.00 0.00 0.00 56 1018.9
20260902190536 34 68 1.6 12.9 0.00 0.00 0.00 57 1018.9
20260902190058 34 72 1.6 6.4 0.00 0.00 0.00 58 1019.2
20260902185536 33 0 3.2 6.4 0.00 0.00 0.00 57 1019.2
20260902185039 33 272 1.6 6.4 0.00 0.00 0.00 57 1019.2
20260902184553 34 59 1.6 8.0 0.00 0.00 0.00 59 1019.2
20260902184037 33 265 1.6 9.7 0.00 0.00 0.00 59 1019.2
20260902183536 33 69 3.2 11.3 0.00 0.00 0.00 57 1019.4
20260902183124 34 83 3.2 11.3 0.00 0.00 0.00 55 1019.3
20260902182536 34 109 3.2 9.7 0.00 0.00 0.00 57 1019.4
20260902182036 34 307 3.2 9.7 0.00 0.00 0.00 57 1019.4
20260902181555 34 64 3.2 9.7 0.00 0.00 0.00 60 1019.3
20260902181036 33 71 3.2 11.3 0.00 0.00 0.00 57 1019.4
20260902180537 34 61 3.2 11.3 0.00 0.00 0.00 59 1019.4
20260902180105 34 40 3.2 9.7 0.00 0.00 0.00 61 1019.6
20260902175537 33 52 3.2 8.0 0.00 0.00 0.00 60 1019.6
20260902175040 33 44 3.2 9.7 0.00 0.00 0.00 58 1019.6
20260902174555 33 282 1.6 9.7 0.00 0.00 0.00 59 1019.7
20260902174036 33 47 3.2 9.7 0.00 0.00 0.00 62 1019.8
20260902173537 33 241 3.2 11.3 0.00 0.00 0.00 60 1019.9
20260902173114 33 286 4.8 11.3 0.00 0.00 0.00 61 1019.9
20260902172537 33 13 4.8 11.3 0.00 0.00 0.00 60 1020.0
20260902172037 33 90 3.2 11.3 0.00 0.00 0.00 61 1020.0
20260902171617 33 50 3.2 9.7 0.00 0.00 0.00 60 1020.0
20260902171039 33 51 3.2 9.7 0.00 0.00 0.00 60 1020.0
20260902170536 33 339 3.2 9.7 0.00 0.00 0.00 64 1020.1
20260902170058 33 77 3.2 9.7 0.00 0.00 0.00 63 1020.0
20260902165537 33 54 4.8 9.7 0.00 0.00 0.00 64 1020.0
20260902165039 33 312 1.6 8.0 0.00 0.00 0.00 65 1020.0
20260902164602 33 334 3.2 11.3 0.00 0.00 0.00 63 1020.1
20260902164037 33 38 1.6 11.3 0.00 0.00 0.00 62 1020.1
20260902163537 33 92 3.2 9.7 0.00 0.00 0.00 63 1020.1
20260902163105 33 32 1.6 11.3 0.00 0.00 0.00 65 1020.1
20260902162538 33 12 3.2 11.3 0.00 0.00 0.00 64 1020.1
20260902162039 33 0 1.6 6.4 0.00 0.00 0.00 62 1020.0
20260902161601 33 54 0.0 4.8 0.00 0.00 0.00 62 1020.1
20260902161038 32 26 1.6 4.8 0.00 0.00 0.00 64 1020.2
20260902160538 32 71 1.6 8.0 0.00 0.00 0.00 64 1020.2
20260902160104 32 48 3.2 8.0 0.00 0.00 0.00 63 1020.2
20260902155537 32 0 1.6 6.4 0.00 0.00 0.00 65 1020.3
20260902155038 32 81 3.2 4.8 0.00 0.00 0.00 66 1020.2
20260902154558 31 195 1.6 4.8 0.00 0.00 0.00 66 1020.4
20260902154037 31 13 0.0 6.4 0.00 0.00 0.00 69 1020.3
20260902153537 31 36 1.6 6.4 0.00 0.00 0.00 67 1020.2
20260902153059 31 103 3.2 6.4 0.00 0.00 0.00 67 1020.3
20260902152537 31 20 1.6 9.7 0.00 0.00 0.00 68 1020.4
20260902152036 30 91 3.2 9.7 0.00 0.00 0.00 70 1020.3
20260902151559 30 84 1.6 6.4 0.00 0.00 0.00 71 1020.4
20260902151036 30 44 1.6 6.4 0.00 0.00 0.00 70 1020.3
20260902150538 30 0 1.6 6.4 0.00 0.00 0.00 72 1020.5
20260902150055 29 44 1.6 6.4 0.00 0.00 0.00 72 1020.4
20260902145538 29 318 3.2 6.4 0.00 0.00 0.00 72 1020.4
20260902145037 29 22 1.6 6.4 0.00 0.00 0.00 75 1020.4
20260902144552 28 0 1.6 6.4 0.00 0.00 0.00 75 1020.5
20260902144036 28 42 0.0 6.4 0.00 0.00 0.00 75 1020.4
20260902143537 28 0 1.6 6.4 0.00 0.00 0.00 75 1020.4
20260902143101 28 347 1.6 6.4 0.00 0.00 0.00 77 1020.4
20260902142537 27 51 1.6 4.8 0.00 0.00 0.00 79 1020.4
20260902142033 27 0 0.0 6.4 0.00 0.00 0.00 82 1020.3
20260902141555 27 34 1.6 6.4 0.00 0.00 0.00 81 1020.4
20260902141032 27 36 0.0 4.8 0.00 0.00 0.00 83 1020.5
20260902140532 27 5 0.0 4.8 0.00 0.00 0.00 83 1020.4
20260902140054 27 73 1.6 6.4 0.00 0.00 0.00 82 1020.3
20260902135534 26 68 1.6 6.4 0.00 0.00 0.00 83 1020.4
20260902135037 26 0 1.6 6.4 0.00 0.00 0.00 85 1020.3
20260902134555 26 55 1.6 4.8 0.00 0.00 0.00 85 1020.3
20260902134034 26 15 1.6 4.8 0.00 0.00 0.00 86 1020.2
20260902133536 25 22 1.6 4.8 0.00 0.00 0.00 87 1020.4
20260902133057 25 20 1.6 4.8 0.00 0.00 0.00 87 1020.4
20260902132536 25 17 1.6 4.8 0.00 0.00 0.00 88 1020.4
20260902132036 25 352 1.6 4.8 0.00 0.00 0.00 89 1020.4
20260902131557 25 23 1.6 4.8 0.00 0.00 0.00 90 1020.3
20260902131033 24 19 1.6 4.8 0.00 0.00 0.00 91 1020.3
20260902130533 24 32 1.6 3.2 0.00 0.00 0.00 91 1020.3
20260902130056 24 21 1.6 3.2 0.00 0.00 0.00 91 1020.4
20260902125536 23 21 1.6 3.2 0.00 0.00 0.00 91 1020.3
20260902125033 23 360 1.6 4.8 0.00 0.00 0.00 92 1020.3
20260902124551 23 30 1.6 4.8 0.00 0.00 0.00 92 1020.2
20260902124034 23 42 1.6 3.2 0.00 0.00 0.00 92 1020.3
20260902123533 23 22 1.6 3.2 0.00 0.00 0.00 92 1020.3
20260902123104 23 42 1.6 3.2 0.00 0.00 0.00 93 1020.2
20260902122533 23 39 1.6 3.2 0.00 0.00 0.00 93 1020.1
20260902122037 22 38 1.6 3.2 0.00 0.00 0.00 93 1020.1
20260902121555 22 34 1.6 3.2 0.00 0.00 0.00 94 1020.2
20260902121032 22 34 1.6 3.2 0.00 0.00 0.00 94 1020.1
20260902120534 22 33 1.6 3.2 0.00 0.00 0.00 94 1020.1
20260902120054 22 36 0.0 1.6 0.00 0.00 0.00 94 1020.0
20260902115533 22 36 0.0 3.2 0.00 0.00 0.00 94 1020.0
20260902115033 22 36 0.0 3.2 0.00 0.00 0.00 94 1020.1
20260902114549 22 38 1.6 3.2 0.00 0.00 0.00 94 1020.0
20260902114033 22 19 0.0 1.6 0.00 0.00 0.00 94 1019.8
20260902113534 22 17 0.0 1.6 0.00 0.00 0.00 94 1019.8
20260902113104 22 17 0.0 1.6 0.00 0.00 0.00 94 1019.7
20260902112536 22 17 0.0 1.6 0.00 0.00 0.00 94 1019.7
20260902112033 22 17 0.0 1.6 0.00 0.00 0.00 94 1019.7
20260902111605 22 17 0.0 1.6 0.00 0.00 0.00 94 1019.6
20260902111032 22 17 0.0 1.6 0.00 0.00 0.00 94 1019.6
20260902110539 22 17 0.0 1.6 0.00 0.00 0.00 94 1019.6
20260902110057 22 0 0.0 1.6 0.00 0.00 0.00 94 1019.6
20260902105540 22 17 0.0 1.6 0.00 0.00 0.00 94 1019.6
20260902105037 22 16 0.0 1.6 0.00 0.00 0.00 94 1019.7
20260902104614 22 17 0.0 1.6 0.00 0.00 0.00 94 1019.6
20260902104038 22 0 0.0 1.6 0.00 0.00 0.00 94 1019.6
20260902103536 22 9 0.0 1.6 0.00 0.00 0.00 94 1019.4
20260902103102 22 9 0.0 1.6 0.00 0.00 0.00 94 1019.4
20260902102537 22 9 0.0 1.6 0.00 0.00 0.00 94 1019.3
20260902102037 22 0 0.0 1.6 0.00 0.00 0.00 94 1019.4
20260902101554 22 0 0.0 1.6 0.00 0.00 0.00 94 1019.4
20260902101037 22 0 0.0 1.6 0.00 0.00 0.00 94 1019.5
20260902100537 22 344 0.0 1.6 0.00 0.00 0.00 94 1019.6
20260902100054 22 344 0.0 1.6 0.00 0.00 0.00 94 1019.6
20260902095538 22 344 0.0 1.6 0.00 0.00 0.00 94 1019.5
20260902095038 22 32 0.0 1.6 0.00 0.00 0.00 94 1019.6
20260902094549 22 32 0.0 1.6 0.00 0.00 0.00 94 1019.5
20260902094037 22 33 0.0 1.6 0.00 0.00 0.00 94 1019.6
20260902093537 22 32 0.0 1.6 0.00 0.00 0.00 94 1019.5
20260902093104 22 0 0.0 1.6 0.00 0.00 0.00 94 1019.4
20260902092539 22 0 0.0 1.6 0.00 0.00 0.00 94 1019.3
20260902092034 22 0 0.0 1.6 0.00 0.00 0.00 94 1019.3
20260902091552 22 36 0.0 1.6 0.00 0.00 0.00 95 1019.3
20260902091037 22 0 0.0 1.6 0.00 0.00 0.00 95 1019.3
20260902090540 22 0 0.0 0.0 0.00 0.00 0.00 94 1019.4
20260902090111 22 0 0.0 0.0 0.00 0.00 0.00 95 1019.3
20260902085536 22 0 0.0 0.0 0.00 0.00 0.00 95 1019.4
20260902085036 22 0 0.0 0.0 0.00 0.00 0.00 94 1019.3
20260902084600 22 0 0.0 0.0 0.00 0.00 0.00 94 1019.3
20260902084039 22 0 0.0 0.0 0.00 0.00 0.00 94 1019.2
20260902083536 22 0 0.0 0.0 0.00 0.00 0.00 94 1019.3
20260902083052 22 0 0.0 0.0 0.00 0.00 0.00 94 1019.2
20260902082537 22 0 0.0 0.0 0.00 0.00 0.00 94 1019.2
20260902082037 22 0 0.0 0.0 0.00 0.00 0.00 94 1019.1
20260902081602 22 0 0.0 0.0 0.00 0.00 0.00 94 1019.0
20260902081037 22 0 0.0 0.0 0.00 0.00 0.00 93 1019.0
20260902080537 22 0 0.0 0.0 0.00 0.00 0.00 93 1018.9
20260902080059 22 0 0.0 0.0 0.00 0.00 0.00 93 1019.1
20260902075537 22 0 0.0 0.0 0.00 0.00 0.00 93 1018.9
20260902075036 22 0 0.0 0.0 0.00 0.00 0.00 92 1018.9
20260902074604 22 0 0.0 0.0 0.00 0.00 0.00 93 1018.8
20260902074036 22 0 0.0 0.0 0.00 0.00 0.00 93 1018.8
20260902073536 22 0 0.0 0.0 0.00 0.00 0.00 92 1018.7
20260902073104 22 0 0.0 0.0 0.00 0.00 0.00 92 1018.9
20260902072538 22 0 0.0 0.0 0.00 0.00 0.00 92 1018.8
20260902072037 22 0 0.0 0.0 0.00 0.00 0.00 91 1018.7
20260902071613 23 0 0.0 0.0 0.00 0.00 0.00 91 1018.8
20260902071037 23 0 0.0 0.0 0.00 0.00 0.00 90 1018.8
20260902070537 23 0 0.0 0.0 0.00 0.00 0.00 90 1018.8
20260902070059 23 0 0.0 1.6 0.00 0.00 0.00 89 1018.8
20260902065536 23 0 0.0 1.6 0.00 0.00 0.00 89 1018.9
20260902065037 23 0 0.0 1.6 0.00 0.00 0.00 89 1018.8
20260902064555 23 36 0.0 1.6 0.00 0.00 0.00 89 1018.8
20260902064036 23 36 0.0 1.6 0.00 0.00 0.00 90 1018.8
20260902063536 23 36 0.0 1.6 0.00 0.00 0.00 90 1018.7
20260902063101 23 35 0.0 1.6 0.00 0.00 0.00 90 1018.7
20260902062538 23 35 0.0 1.6 0.00 0.00 0.00 90 1018.7
20260902062036 23 35 0.0 1.6 0.00 0.00 0.00 90 1018.8
20260902061037 23 0 0.0 1.6 0.00 0.00 0.00 90 1018.9
20260902060536 23 0 0.0 1.6 0.00 0.00 0.00 90 1018.9
20260902060101 23 36 0.0 0.0 0.00 0.00 0.00 90 1018.9
20260902055535 23 0 0.0 0.0 0.00 0.00 0.00 90 1019.0
20260902055037 23 0 0.0 1.6 0.00 0.00 0.00 90 1019.0
20260902054613 23 0 0.0 1.6 0.00 0.00 0.00 90 1018.9
20260902054036 23 0 0.0 0.0 0.00 0.00 0.00 90 1019.0
20260902053536 23 0 0.0 0.0 0.00 0.00 0.00 90 1018.9
20260902053109 23 0 0.0 0.0 0.00 0.00 0.00 90 1018.9
20260902052535 23 0 0.0 0.0 0.00 0.00 0.00 90 1018.8
20260902052036 23 0 0.0 0.0 0.00 0.00 0.00 90 1019.0
20260902051601 23 0 0.0 0.0 0.00 0.00 0.00 90 1018.9
20260902051036 23 0 0.0 0.0 0.00 0.00 0.00 90 1018.7
20260902050535 23 0 0.0 0.0 0.00 0.00 0.00 90 1018.8
20260902045536 23 0 0.0 0.0 0.00 0.00 0.00 90 1018.9
20260902045036 23 0 0.0 0.0 0.00 0.00 0.00 90 1018.8
20260902044556 23 0 0.0 0.0 0.00 0.00 0.00 90 1018.9
20260902044036 23 0 0.0 0.0 0.00 0.00 0.00 90 1018.9
20260902043536 23 0 0.0 0.0 0.00 0.00 0.00 90 1018.8
20260902043057 23 0 0.0 0.0 0.00 0.00 0.00 90 1018.8
20260902042537 23 0 0.0 0.0 0.00 0.00 0.00 90 1019.0
20260902042036 23 0 0.0 0.0 0.00 0.00 0.00 90 1019.0
20260902041559 23 0 0.0 0.0 0.00 0.00 0.00 90 1019.0
20260902041037 24 0 0.0 0.0 0.00 0.00 0.00 89 1019.0
20260902040535 24 0 0.0 0.0 0.00 0.00 0.00 89 1019.1
20260902040100 24 0 0.0 0.0 0.00 0.00 0.00 89 1019.0
20260902035535 24 0 0.0 0.0 0.00 0.00 0.00 89 1019.1
20260902035035 24 0 0.0 0.0 0.00 0.00 0.00 89 1019.0
20260902034558 24 0 0.0 0.0 0.00 0.00 0.00 89 1018.8
20260902034038 24 0 0.0 0.0 0.00 0.00 0.00 89 1018.9
20260902033536 24 0 0.0 0.0 0.00 0.00 0.00 89 1018.9
20260902033056 24 0 0.0 0.0 0.00 0.00 0.00 89 1018.9
20260902032536 25 0 0.0 0.0 0.00 0.00 0.00 89 1018.8
20260902032036 25 0 0.0 0.0 0.00 0.00 0.00 89 1018.9
20260902031602 25 0 0.0 0.0 0.00 0.00 0.00 89 1019.0
20260902031037 25 0 0.0 0.0 0.00 0.00 0.00 89 1019.0
20260902030536 25 0 0.0 0.0 0.00 0.00 0.00 89 1018.8
20260902030054 25 0 0.0 0.0 0.00 0.00 0.00 88 1018.8